Погода в Широком

Украина / Запорожская область     46°56′31″N   34°55′05″E
темп.,
°C
ветер,
м/с
пор.,
м/с
влажн.,
%
обл.,
%
осадки,
мм/ч
давл.,
гПа
погр.,
м
28 февраля, вс
вс2823:00+3ссз498992 0.0 1018340
02:00+3сз489496 0.1 1018448
05:00+2сз4795100 0.1 1019394
08:00+2сз4897100 0.9 1020469
11:00+3ссз4793100 0.4 1020458
14:00+3ссз5888100 0.6 1020639
17:00+3ссз478398 0.2 1021608
20:00+1сз379291 0.3 1022189
1 марта, пн
пн123:000сз249692 0.0 1023129
02:000зсз239394 0.0 102344
05:00−1сз229483 0.0 102437
08:00+1с238880 0.0 1025236
11:00+4ссв336860 0.1 1026854
14:00+4с346178 0.1 10271043
17:00+3с346998 0.1 1027191
20:00+1с368184 0.1 1029125
2 марта, вт
вт223:000с348372 0.0 1030105
02:00−1ссз237846 0.0 103063
05:00−1зсз227456 0.0 103022
08:00+1зюз357472 0.0 1029234
11:00+5з576074 0.0 10281068
14:00+6з796187 0.0 1025990
17:00+5зюз6126952 0.0 1023637
20:00+3зюз7148029 0.0 1022414
3 марта, ср
ср323:00+3з7138446 0.0 1021385
02:00+2зсз5109447 0.0 1021280
05:00+1сз599366 0.0 1021291
08:00+3ссз6108383 0.0 1023941
11:00+4с796773 0.1 10241104
14:00+6ссз675770 0.1 10241090
17:00+4ссз47640 0.0 1025436
20:00+1с23760 0.0 102753
4 марта, чт
чт423:000ссз22820 0.0 102722
02:000сз12840 0.0 102721
05:00−1з11840 0.0 102621
08:00+2ююз23740 0.0 1026202
11:00+7юз45520 0.0 1024999
14:00+8юз57480 0.0 10221263
17:00+7юз59590 0.0 1020343
20:00+3юз410766 0.0 1020286